[[{"header":{"parameterUnit":"m.s-1","parameterCategory":1,"la1":30.2991,"la2":30.254,"lo1":-89.0895,"lo2":-89.0444,"dy":0.0017,"dx":0.0017,"nx":28,"ny":28,"refTime":"2024-05-23T03:00:00:Z","depth":0,"parameterNumber":2,"parameterNumberName":"U-component_of_WINDS"},"data":[0,0,0,0,0,0,0,0,0,0,0,0,0,0,0,0,0,0,0,0,0,0,0,0,0,0,0,0,0,0,0,0,0,0,0,0,0,0,0,0,0,0,0,0,0,0,0,0,0,0,0,0,0,0,0,0,0,0,-2.7187,-2.7187,0,-2.7206,-2.7206,-2.7206,-2.7165,-2.7164,-2.7162,-2.7161,-2.7179,-2.7181,-2.7182,0,0,0,0,0,0,0,0,0,0,0,0,0,-2.7115,-2.7117,-2.7187,-2.7187,-2.7187,-2.7206,-2.7206,-2.7206,-2.7165,-2.7163,-2.7162,-2.716,-2.7178,-2.718,-2.7182,0,0,0,0,0,0,0,0,0,0,0,0,0,-2.7142,-2.7117,-2.7187,-2.7169,-2.7168,-2.7206,-2.7206,-2.7206,-2.7165,-2.7163,-2.7161,-2.716,-2.7178,-2.718,-2.7183,-2.7238,0,0,-2.7191,-2.7192,0,0,0,0,0,0,0,0,-2.714,-2.7144,-2.7171,-2.717,-2.7169,-2.7181,-2.7187,-2.7217,-2.7166,-2.7166,-2.7161,-2.7159,-2.7181,-2.7183,-2.7191,-2.7239,-2.724,-2.7191,-2.7192,-2.7194,-2.7194,0,0,0,0,0,0,0,-2.7138,-2.7143,-2.7194,-2.7172,-2.717,-2.716,-2.7162,-2.7193,-2.7185,-2.7166,-2.7163,-2.7166,-2.718,-2.7189,-2.7191,-2.724,-2.7191,-2.7193,-2.7195,-2.7196,-2.7336,-2.7338,0,0,0,0,0,0,-2.7139,-2.7142,-2.7194,-2.7195,-2.7149,-2.7163,-2.7165,-2.7179,-2.7184,-2.7183,-2.7168,-2.7164,-2.7185,-2.7188,-2.7192,-2.7257,-2.7193,-2.7196,-2.7197,-2.7333,-2.7336,-2.7338,0,0,0,0,0,0,-2.7137,-2.7144,-2.7193,-2.7168,-2.7173,-2.7166,-2.7183,-2.718,-2.7189,-2.7185,-2.7184,-2.7178,-2.7184,-2.7188,-2.7227,-2.7257,-2.7197,-2.7199,-2.7331,-2.7334,-2.7337,-2.7387,0,0,0,0,0,0,-2.7136,-2.7144,-2.7164,-2.7168,-2.7175,-2.7228,-2.7185,-2.7182,-2.7194,-2.7189,-2.7195,-2.7194,-2.7183,-2.7224,-2.723,-2.7259,-2.7201,-2.7328,-2.7332,-2.7336,-2.7383,-2.7392,-2.7399,0,0,0,0,0,-2.7133,-2.7177,-2.7166,-2.7172,-2.72,-2.723,-2.7233,-2.722,-2.7196,-2.7217,-2.7215,-2.7193,-2.7253,-2.7228,-2.7235,-2.7265,-2.7326,-2.7331,-2.7336,-2.7379,-2.739,-2.7399,0,0,0,0,0,0,-2.7176,-2.7177,-2.7164,-2.7211,-2.7221,-2.7223,-2.7248,-2.7232,-2.7248,-2.7243,-2.7226,-2.7228,-2.727,-2.7272,-2.7244,-2.732,-2.7286,-2.7292,-2.7316,-2.7327,-2.7335,-2.7332,-2.7204,0,0,0,0,0,-2.7191,-2.7215,-2.7215,-2.7256,-2.7262,-2.7255,-2.7267,-2.7256,-2.7265,-2.7269,-2.727,-2.7279,-2.73,-2.7314,-2.7333,-2.7384,-2.7384,-2.7409,-2.7417,-2.7424,-2.7429,-2.7456,-2.7466,-2.7354,-2.7354,-2.7354,0,0,-2.7222,-2.7226,-2.7241,-2.7265,-2.7271,-2.7296,-2.7258,-2.7286,-2.7304,-2.7273,-2.7309,-2.7311,-2.7321,-2.7366,-2.7386,-2.7369,-2.746,-2.743,-2.7436,-2.7437,-2.7462,-2.7473,-2.7482,-2.7358,-2.7357,-2.7357,0,0,-2.729,-2.7296,-2.7331,-2.7338,-2.7349,-2.7344,-2.7353,-2.7358,-2.7358,-2.7395,-2.7372,-2.7394,-2.743,-2.7438,-2.7447,-2.7521,-2.7502,-2.7528,-2.757,-2.7597,-2.7606,-2.7614,-2.7639,-2.7649,-2.7534,-2.7534,-2.7534,0,-2.7326,-2.7363,-2.7351,-2.738,-2.7391,-2.7366,-2.7401,-2.7409,-2.7425,-2.7433,-2.7414,-2.746,-2.7465,-2.7512,-2.753,-2.7539,-2.7548,-2.7526,-2.7606,-2.7613,-2.762,-2.7644,-2.7654,-2.7537,-2.7537,-2.7536,-2.7536,0,-2.7407,-2.7433,-2.746,-2.7477,-2.7492,-2.7524,-2.7517,-2.7533,-2.7522,-2.752,-2.7558,-2.7564,-2.7583,-2.7594,-2.7584,-2.764,-2.7629,-2.7609,-2.7573,-2.7634,-2.7657,-2.7666,-2.7541,-2.754,-2.7539,-2.7539,0,0,-2.7499,-2.7511,-2.7521,-2.7528,-2.7539,-2.7559,-2.7591,-2.7611,-2.7625,-2.7638,-2.7664,-2.7697,-2.7678,-2.7688,-2.7679,-2.7703,-2.7761,-2.7679,-2.7679,-2.7693,-2.7823,-2.7836,-2.7847,-2.7749,-2.7751,-2.7752,-2.7821,0,-2.7566,-2.762,-2.7611,-2.7664,-2.7688,-2.7666,-2.7694,-2.7704,-2.7703,-2.7724,-2.7723,-2.7746,-2.772,-2.7726,-2.7749,-2.7749,-2.7786,-2.7744,-2.7772,-2.7773,-2.7768,-2.7859,-2.7873,-2.7938,-2.783,-2.7831,-2.7833,0,-2.7649,-2.7666,-2.7722,-2.773,-2.774,-2.7765,-2.7783,-2.7803,-2.7815,-2.7813,-2.7825,-2.7812,-2.7844,-2.7811,-2.7855,-2.7827,-2.7838,-2.784,-2.7842,-2.7842,-2.7805,-2.7859,-2.7958,-2.7967,-2.7846,-2.7845,-2.7844,0,-2.7709,-2.7746,-2.7784,-2.7792,-2.7802,-2.7821,-2.7826,-2.7836,-2.7849,-2.7865,-2.7874,-2.7894,-2.7904,-2.792,-2.7913,-2.789,-2.7958,-2.7924,-2.7956,-2.7957,-2.7969,-2.7968,-2.8069,-2.7981,-2.7981,-2.798,-2.798,0,-2.7783,-2.7817,-2.7811,-2.7834,-2.7872,-2.7863,-2.7901,-2.7904,-2.7913,-2.7936,-2.7919,-2.7942,-2.7932,-2.7954,-2.7948,-2.7985,-2.7991,-2.7989,-2.7987,-2.7989,-2.7989,-2.7995,-2.7989,-2.7983,-2.7982,-2.7982,-2.7981,0,-2.7854,-2.7852,-2.7892,-2.79,-2.7903,-2.7931,-2.7937,-2.7959,-2.7959,-2.7988,-2.7995,-2.7994,-2.8019,-2.8014,-2.8041,-2.8038,-2.8084,-2.8077,-2.808,-2.8077,-2.8109,-2.8105,-2.8215,-2.8228,-2.8133,-2.8134,-2.8135,0,-2.79,-2.7926,-2.7938,-2.7953,-2.796,-2.7984,-2.7998,-2.799,-2.8005,-2.8021,-2.8041,-2.8065,-2.8083,-2.8124,-2.8125,-2.8147,-2.8139,-2.8176,-2.8142,-2.8144,-2.8138,-2.8135,-2.8138,-2.8182,-2.8183,-2.8184,-2.8185,0,-2.7982,-2.798,-2.8,-2.8021,-2.8039,-2.8054,-2.8069,-2.8082,-2.8076,-2.8094,-2.8119,-2.8134,-2.8163,-2.8186,-2.8206,-2.8212,-2.8197,-2.8196,-2.8204,-2.8206,-2.8205,-2.8205,-2.8096,-2.8193,-2.8192,-2.8191,-2.8191,-2.8191,-2.8041,-2.8063,-2.8075,-2.8099,-2.8109,-2.8123,-2.8144,-2.8147,-2.8169,-2.8192,-2.8187,-2.8216,-2.8228,-2.8253,-2.8262,-2.8284,-2.827,-2.8283,-2.8285,-2.8288,-2.8291,-2.8204,-2.8288,-2.8288,-2.8288,-2.8288,-2.8287,0,-2.812,-2.8127,-2.8149,-2.817,-2.8189,-2.8176,-2.8192,-2.8208,-2.8234,-2.8247,-2.8266,-2.8296,-2.832,-2.8324,-2.8347,-2.8364,-2.8358,-2.837,-2.8367,-2.8369,-2.8303,-2.8293,-2.8374,-2.8374,-2.8374,-2.8374,-2.8374,-2.8374,-2.8163,-2.82,-2.82,-2.8242,-2.8249,-2.8278,-2.8288,-2.8301,-2.8311,-2.8346,-2.8365,-2.8369,-2.8378,-2.8402,-2.8423,-2.8424,-2.8432,-2.8446,-2.8444,-2.8382,-2.8373,-2.8365,-2.8355,-2.8449,-2.8449,-2.8508,-2.8508,-2.8509]},{"header":{"parameterUnit":"m.s-1","parameterCategory":1,"la1":30.2991,"la2":30.254,"lo1":-89.0895,"lo2":-89.0444,"dy":0.0017,"dx":0.0017,"nx":28,"ny":28,"refTime":"2024-05-23T03:00:00:Z","depth":0,"parameterNumber":3,"parameterNumberName":"V-component_of_WINDS"},"data":[0,0,0,0,0,0,0,0,0,0,0,0,0,0,0,0,0,0,0,0,0,0,0,0,0,0,0,0,0,0,0,0,0,0,0,0,0,0,0,0,0,0,0,0,0,0,0,0,0,0,0,0,0,0,0,0,0,0,3.5596,3.5597,0,3.5623,3.5623,3.5623,3.5595,3.5594,3.5593,3.5592,3.5616,3.5618,3.562,0,0,0,0,0,0,0,0,0,0,0,0,0,3.552,3.5522,3.5596,3.5597,3.5597,3.5623,3.5623,3.5623,3.5595,3.5594,3.5593,3.5591,3.5616,3.5618,3.562,0,0,0,0,0,0,0,0,0,0,0,0,0,3.5551,3.5522,3.5596,3.5586,3.5585,3.5623,3.5623,3.5623,3.5595,3.5594,3.5592,3.5591,3.5615,3.5618,3.562,3.5668,0,0,3.5628,3.5629,0,0,0,0,0,0,0,0,3.5549,3.5553,3.5587,3.5587,3.5586,3.5604,3.5605,3.5638,3.5596,3.5592,3.5592,3.559,3.5613,3.5616,3.5624,3.5669,3.567,3.5628,3.5629,3.563,3.5631,0,0,0,0,0,0,0,3.5547,3.5552,3.5607,3.5588,3.5587,3.558,3.5582,3.5611,3.5611,3.5592,3.559,3.5594,3.5613,3.5622,3.5625,3.567,3.5628,3.563,3.5631,3.5632,3.5756,3.5757,0,0,0,0,0,0,3.5546,3.5551,3.5606,3.5607,3.5563,3.5582,3.5585,3.56,3.5611,3.5611,3.5595,3.5592,3.5619,3.5622,3.5625,3.5681,3.563,3.5633,3.5634,3.5754,3.5756,3.5758,0,0,0,0,0,0,3.5545,3.5551,3.5605,3.5579,3.5585,3.5586,3.5602,3.5601,3.561,3.5613,3.5613,3.5604,3.5617,3.5622,3.5658,3.5682,3.5634,3.5636,3.5752,3.5755,3.5757,3.5794,0,0,0,0,0,0,3.5543,3.5551,3.5569,3.5579,3.5586,3.5637,3.5604,3.5603,3.5615,3.5612,3.5622,3.5622,3.5616,3.5654,3.566,3.5684,3.5638,3.575,3.5753,3.5756,3.5791,3.5798,3.5804,0,0,0,0,0,3.554,3.5578,3.557,3.5577,3.5609,3.5638,3.5642,3.5636,3.5617,3.5635,3.5637,3.5622,3.5679,3.5658,3.5665,3.569,3.5748,3.5752,3.5756,3.5788,3.5796,3.5804,0,0,0,0,0,0,3.5569,3.5579,3.557,3.5613,3.5625,3.5633,3.5656,3.5645,3.5662,3.5658,3.5649,3.5652,3.5689,3.5694,3.567,3.5737,3.571,3.5716,3.5732,3.5741,3.5747,3.5744,3.564,0,0,0,0,0,3.5581,3.5604,3.5611,3.5648,3.5655,3.5655,3.5667,3.5662,3.5673,3.5678,3.5682,3.5694,3.5715,3.5728,3.5747,3.5792,3.5794,3.5813,3.582,3.5825,3.5829,3.5853,3.5862,3.5771,3.5771,3.5771,0,0,3.5604,3.5613,3.5628,3.5654,3.5663,3.5687,3.5659,3.5685,3.5703,3.5682,3.5715,3.572,3.5732,3.5773,3.5791,3.5777,3.5855,3.583,3.5835,3.5836,3.5858,3.5867,3.5874,3.5774,3.5773,3.5773,0,0,3.5659,3.5669,3.57,3.571,3.5725,3.5725,3.5732,3.5743,3.5745,3.578,3.5764,3.5785,3.5821,3.583,3.584,3.5902,3.5887,3.5908,3.5941,3.5965,3.5972,3.5978,3.5999,3.6006,3.5913,3.5913,3.5913,0,3.5686,3.5722,3.5717,3.5745,3.5757,3.5742,3.5773,3.5783,3.5803,3.5811,3.5796,3.5842,3.5849,3.5891,3.5907,3.5915,3.5923,3.5905,3.5971,3.5978,3.5983,3.6003,3.6011,3.5915,3.5915,3.5915,3.5915,0,3.5755,3.578,3.5804,3.5824,3.584,3.5869,3.5868,3.5884,3.5878,3.588,3.5915,3.5924,3.5945,3.5955,3.5949,3.5997,3.5988,3.5973,3.5945,3.5994,3.6012,3.602,3.5919,3.5918,3.5917,3.5916,0,0,3.5825,3.5845,3.5854,3.5863,3.5879,3.5898,3.5928,3.5949,3.5962,3.5978,3.6001,3.6033,3.602,3.6031,3.6026,3.6047,3.6094,3.6029,3.6029,3.6039,3.6146,3.6156,3.6165,3.6086,3.6087,3.6089,3.6145,0,3.588,3.5931,3.5929,3.5976,3.6,3.5986,3.6012,3.6024,3.6028,3.6047,3.605,3.6073,3.6054,3.606,3.6081,3.6084,3.6115,3.608,3.6106,3.6107,3.6101,3.6175,3.6185,3.6237,3.6152,3.6153,3.6154,0,3.5949,3.5967,3.6018,3.6032,3.6041,3.6064,3.6084,3.6104,3.6118,3.6119,3.6132,3.6125,3.6154,3.6128,3.6168,3.6145,3.6156,3.616,3.6161,3.6162,3.6132,3.6175,3.6254,3.6261,3.6166,3.6165,3.6164,0,3.5994,3.6032,3.6067,3.6076,3.6092,3.6109,3.6117,3.6129,3.6143,3.6161,3.6169,3.619,3.6201,3.6217,3.6215,3.6196,3.6255,3.6229,3.6256,3.6256,3.6266,3.6265,3.6346,3.6277,3.6277,3.6277,3.6277,0,3.6053,3.6084,3.6087,3.6109,3.6143,3.6141,3.6175,3.6181,3.6193,3.6215,3.6205,3.6226,3.6223,3.6244,3.6243,3.6276,3.6281,3.6282,3.6281,3.6281,3.6281,3.6287,3.6282,3.6279,3.6279,3.6278,3.6278,0,3.6108,3.6111,3.6149,3.6163,3.6167,3.6192,3.6203,3.6223,3.6227,3.6255,3.6261,3.6266,3.629,3.6291,3.6318,3.6318,3.6357,3.6353,3.6352,3.6351,3.6376,3.6373,3.6462,3.6473,3.6399,3.64,3.64,0,3.6144,3.6168,3.6185,3.62,3.6209,3.6233,3.6247,3.6246,3.6261,3.628,3.6298,3.6322,3.634,3.638,3.6385,3.6406,3.6401,3.6431,3.6404,3.6404,3.64,3.6397,3.6399,3.6435,3.6436,3.6437,3.6437,0,3.6208,3.621,3.6231,3.6253,3.6271,3.6288,3.6304,3.6317,3.6318,3.6336,3.6361,3.6375,3.6405,3.6428,3.6449,3.6456,3.6446,3.6446,3.6453,3.6453,3.6451,3.6451,3.6365,3.6443,3.6443,3.6442,3.6442,3.6442,3.6254,3.6275,3.629,3.6315,3.6327,3.6343,3.6363,3.637,3.6391,3.6415,3.6414,3.6441,3.6456,3.6483,3.6493,3.6514,3.6503,3.6514,3.6516,3.6518,3.652,3.645,3.6518,3.6518,3.6518,3.6518,3.6517,0,3.6316,3.6327,3.6349,3.6373,3.6392,3.6384,3.6402,3.6418,3.6443,3.6458,3.6477,3.6506,3.653,3.6538,3.656,3.6576,3.6572,3.6581,3.6579,3.6581,3.6529,3.652,3.6584,3.6584,3.6584,3.6584,3.6584,3.6584,3.6351,3.6385,3.6389,3.643,3.6439,3.6467,3.6478,3.6493,3.6505,3.6538,3.6558,3.6564,3.6576,3.6599,3.662,3.6622,3.663,3.6641,3.664,3.6591,3.6584,3.6578,3.6569,3.6643,3.6643,3.669,3.6691,3.6691]}]]